{"data":{"norad_id":63143,"epoch":"2026-05-25T00:55:34.093056Z","epoch_age_seconds":71989,"freshness":"FRESH","line1":"1 63143U 25043M   26145.03858904  .00170555  00000+0  13013-2 0  9998","line2":"2 63143  42.9965 150.1664 0000634 278.6523  81.4273 15.70918522 71365","mean_motion":15.70918522,"eccentricity":6.34e-5,"inclination_deg":42.9965,"raan_deg":150.1664,"arg_perigee_deg":278.6523,"mean_anomaly_deg":81.4273,"bstar":0.0013013,"rev_number":7136,"period_min":91.666116341074,"perigee_km":355.843678901,"apogee_km":356.6976017898,"semimajor_km":6734.4076403454,"source":"CELESTRAK","updated_at":"2026-05-25T13:38:19.916099Z"}}